GEFSSGP_500_meanwind_246.txt.gz
Wind_Speed
4 4 3 3 3 3 2 3 3 4 5 5 6 7 7 8 7 7 7 7 7 7 8 8 8 8 8 8 9 9 9 8 7 7 8 8 8 8 8 8 8 7 7 8 8 8 8 8 9
5 5 4 4 4 4 4 4 5 6 6 7 7 7 8 8 7 7 6 6 7 7 8 9 9 8 8 8 9 9 9 9 8 9 9 9 9 8 9 9 8 9 9 9 9 9 9 9 9
6 6 5 5 5 4 4 5 6 6 7 7 8 8 8 8 8 8 7 7 7 8 9 9 9 9 9 9 9 9 9 9 9 9 9 9 9 9 9 9 10 10 10 11 10 10 10 11 11
7 7 6 6 5 5 5 6 6 6 6 6 6 7 8 8 9 8 8 8 8 9 10 10 9 9 9 9 9 10 10 10 10 9 9 10 10 10 10 10 11 11 11 12 11 12 12 12 12
9 8 7 7 6 5 6 6 6 5 5 6 7 7 8 8 8 8 8 8 9 9 9 10 9 9 9 9 10 10 11 11 10 10 11 11 11 11 11 11 12 12 13 13 13 14 13 13 13
10 9 8 7 7 6 6 5 5 6 5 6 7 7 8 8 8 8 8 8 9 9 9 8 8 9 9 10 10 10 10 10 11 10 11 11 11 12 12 12 13 14 14 15 15 15 15 15 15
10 9 8 8 7 7 7 6 6 6 6 7 8 8 8 8 8 9 9 9 9 9 8 8 9 9 10 9 10 10 10 11 11 12 12 12 13 13 13 14 15 15 16 16 16 17 16 16 16
10 10 9 8 7 7 7 6 6 7 7 8 9 9 9 9 9 9 10 10 10 9 9 9 9 10 10 9 10 10 11 11 12 13 13 13 13 14 14 14 16 17 17 18 18 18 18 18 18
11 11 10 9 9 8 7 7 7 8 8 9 9 9 10 9 10 10 10 10 10 9 10 11 10 11 10 10 11 11 11 12 13 13 14 14 14 15 14 15 16 18 19 19 19 19 19 19 19
11 10 10 11 10 9 8 8 9 9 8 9 9 9 10 9 10 11 11 11 11 11 11 12 12 12 11 12 12 12 13 14 14 15 15 15 15 15 15 17 17 18 19 19 20 20 20 20 20
11 10 11 12 11 10 9 9 10 10 9 9 8 8 9 10 11 11 11 11 12 12 12 12 12 12 13 13 14 14 14 14 15 15 16 16 16 16 17 17 18 19 19 20 20 21 21 22 22
12 11 11 13 12 11 10 10 10 9 9 9 10 9 10 11 12 12 12 13 13 13 13 13 14 14 14 15 15 15 15 16 16 16 16 17 17 17 18 19 19 19 19 19 20 21 21 22 22
13 12 12 13 13 12 12 12 11 9 9 9 10 11 11 12 12 13 13 13 13 14 14 14 14 15 15 15 15 15 16 16 16 16 17 17 17 18 18 19 19 19 20 20 20 21 22 23 23
13 12 13 13 13 13 13 13 12 12 11 11 11 12 12 12 13 14 14 14 15 16 16 15 15 15 15 15 16 16 16 16 16 17 17 17 18 18 18 18 19 19 20 21 22 22 23 23 23
13 13 13 12 13 13 13 12 12 13 12 11 12 12 12 13 14 15 15 15 16 16 16 15 15 15 15 16 16 16 17 17 17 17 18 18 18 18 18 19 19 19 20 21 22 22 23 23 23
14 14 13 13 13 13 13 12 12 12 12 12 11 12 12 13 14 15 15 15 15 15 15 15 15 15 16 16 16 17 18 18 18 19 19 19 18 18 19 19 19 20 20 21 21 22 22 22 23
15 15 14 13 13 13 13 12 12 12 11 12 12 13 13 13 14 15 16 16 15 15 15 15 15 15 16 16 17 18 18 18 19 19 18 19 19 18 19 19 20 20 20 21 21 21 22 23 23
16 16 15 14 14 14 13 13 12 12 12 13 13 14 15 15 15 15 15 16 15 15 15 15 15 15 15 16 17 17 18 18 18 18 17 18 18 19 19 19 20 19 20 21 21 21 21 22 23
16 15 15 14 15 16 15 14 13 12 13 13 13 14 15 15 15 15 15 15 15 15 15 16 15 14 15 16 17 17 17 17 17 16 16 17 18 18 18 19 20 20 20 20 21 21 21 21 21
16 15 14 15 16 17 16 15 14 14 13 13 13 14 14 16 15 15 15 15 15 15 16 15 15 15 15 16 16 16 16 16 16 16 16 17 18 18 18 19 20 20 20 20 20 21 21 21 21
16 15 14 15 16 17 17 16 15 15 14 13 13 13 14 15 15 15 15 15 15 15 15 15 14 15 15 16 16 16 16 16 16 17 17 17 18 18 19 19 20 20 20 21 20 20 20 19 20
15 15 15 16 17 17 18 17 14 14 13 12 12 13 14 15 15 15 15 15 16 16 15 15 15 16 15 16 16 16 16 16 16 17 17 18 18 19 19 19 20 21 20 20 19 19 19 20 20
15 16 16 17 18 19 18 18 13 13 12 12 13 14 15 15 15 15 15 16 16 16 16 16 16 16 16 16 16 15 16 17 17 17 18 19 20 20 20 20 20 20 19 19 18 18 19 20 21
16 16 16 16 17 18 17 17 14 14 14 13 14 14 15 15 15 15 16 17 18 16 16 16 16 16 16 16 15 16 17 17 18 18 19 20 20 20 20 19 19 19 18 18 18 18 19 20 20
17 16 16 16 16 16 16 16 14 14 14 14 15 15 16 16 15 16 17 18 18 16 16 16 15 15 15 15 16 17 17 17 17 18 19 20 20 20 19 19 19 19 19 18 18 18 18 19 20
16 17 17 18 16 16 16 16 14 13 14 14 15 15 15 15 15 17 17 17 17 16 16 16 15 15 16 16 16 16 16 16 16 18 19 20 20 19 18 18 18 19 18 18 18 18 18 18 19
17 18 18 19 18 17 17 16 15 13 13 13 14 14 14 15 15 16 16 17 17 16 17 15 14 15 15 15 15 16 16 16 17 18 18 19 19 19 18 18 19 19 18 18 18 18 18 18 18
18 18 18 19 19 19 17 16 15 14 13 13 14 14 15 15 15 16 16 16 16 17 16 15 14 15 14 14 15 15 16 16 17 17 17 18 18 18 18 18 18 18 18 18 18 18 18 18 18
20 19 20 20 20 20 18 16 15 15 14 15 15 15 15 15 14 15 15 16 16 16 16 15 15 15 14 15 15 16 15 15 14 16 16 17 17 17 17 17 17 17 17 17 17 17 17 17 16
21 21 21 20 20 19 18 16 16 16 16 16 16 16 16 15 15 15 15 15 15 15 15 15 15 15 15 15 15 15 14 14 14 15 16 16 16 17 17 17 17 17 17 16 17 17 16 15 15

GEFSSGP_500_meanwind_252.txt.gz
Wind_Speed
3 3 2 2 1 1 3 3 3 3 4 4 4 4 5 5 5 5 5 6 6 6 5 4 4 5 4 4 4 5 4 3 3 3 4 3 4 4 4 5 5 6 6 6 6 7 6 6 6
4 3 3 2 1 2 5 4 3 3 4 5 5 5 5 5 6 6 5 6 6 6 6 5 5 5 5 5 5 5 5 5 4 4 4 5 5 6 6 6 6 7 7 7 7 7 6 6 7
5 4 3 3 3 4 6 5 4 4 4 5 5 5 5 5 5 6 6 6 6 6 5 6 6 6 5 5 6 6 7 6 6 5 5 6 6 7 7 7 7 7 7 8 8 8 8 8 7
6 5 4 4 5 5 5 5 5 5 5 5 5 5 6 6 6 6 6 6 6 6 6 7 7 6 6 6 7 7 7 7 7 7 7 7 7 7 7 8 8 8 8 8 9 10 9 9 9
7 6 5 5 6 6 5 5 5 5 5 5 6 5 6 7 8 7 6 6 6 5 6 7 7 7 6 7 7 7 7 8 8 8 8 9 9 8 9 9 10 10 10 10 10 11 11 11 10
8 7 6 7 7 7 6 5 5 4 5 5 6 6 6 8 8 7 7 6 5 6 7 8 8 8 8 8 9 9 8 9 9 9 9 9 9 9 10 10 10 11 11 11 11 11 12 12 12
8 8 8 8 8 8 7 6 6 6 5 5 6 6 7 8 8 7 7 7 7 7 7 8 9 9 8 9 9 10 9 10 10 9 9 8 9 10 11 11 11 12 12 12 13 13 13 14 14
8 8 8 9 9 10 8 7 7 6 6 5 5 6 7 8 8 8 7 7 7 7 8 8 9 10 9 9 9 10 9 9 10 10 9 9 10 10 11 11 11 11 12 13 14 15 15 16 16
9 9 9 9 10 10 9 8 7 6 6 6 6 6 7 7 7 7 8 8 8 8 8 9 9 9 9 10 11 11 10 10 10 11 10 11 11 11 11 11 12 12 13 14 15 16 16 17 16
10 10 10 10 10 10 9 9 8 7 7 7 7 7 7 7 7 8 9 9 10 10 10 10 10 10 11 11 11 12 11 11 11 11 11 12 12 12 12 13 13 14 14 15 15 16 17 17 17
11 11 11 10 10 10 9 9 9 8 9 9 8 8 8 8 8 10 10 10 10 10 10 10 10 11 12 12 12 12 12 12 12 12 12 12 12 13 13 13 14 15 16 16 16 17 17 18 18
12 11 12 11 11 10 10 10 10 10 10 10 10 10 9 9 9 10 11 11 11 11 10 11 12 12 12 13 13 13 13 13 13 13 12 13 13 14 14 14 15 16 16 17 17 18 18 19 20
13 12 12 11 12 11 11 11 11 11 11 11 11 11 10 10 11 11 12 11 12 12 12 12 12 12 13 13 14 15 15 14 14 14 13 13 14 15 16 16 16 16 17 17 18 18 19 20 20
14 13 13 13 12 12 13 12 12 12 12 12 12 12 11 11 12 12 13 13 13 14 14 13 13 13 13 14 15 15 14 13 14 14 14 14 15 16 17 17 17 17 17 18 18 18 19 20 20
14 14 13 13 13 13 13 13 13 13 13 12 12 12 12 12 13 13 14 14 14 15 14 14 14 14 14 14 15 14 13 14 14 14 15 16 16 17 18 18 17 17 18 18 18 18 19 19 19
15 14 13 14 14 14 14 13 15 14 14 13 13 13 13 13 13 13 14 14 15 15 15 15 15 15 15 15 14 14 13 14 14 15 15 16 16 17 17 17 17 17 18 19 19 19 19 19 19
16 15 14 15 15 15 14 14 16 15 15 14 14 14 14 15 14 14 14 15 16 16 16 16 15 15 16 15 15 14 14 14 14 15 16 16 16 16 17 17 17 17 18 19 19 20 20 21 21
17 16 15 16 16 15 15 15 15 14 14 15 15 15 15 16 15 16 15 16 17 17 17 16 16 16 16 15 14 14 14 14 14 15 15 16 17 17 17 17 17 18 19 19 19 20 21 21 22
18 17 17 17 17 16 16 15 16 15 14 15 16 16 17 16 16 17 17 18 18 18 17 17 15 15 15 15 15 14 14 14 14 15 15 16 17 17 17 17 17 18 18 19 19 20 20 21 22
19 18 17 17 17 16 16 15 15 15 15 16 16 17 17 18 17 17 18 18 18 18 17 17 16 16 16 15 14 14 14 14 14 14 15 16 17 17 17 17 17 18 19 19 19 19 20 21 21
20 18 17 17 17 17 16 15 15 15 16 17 17 18 18 19 18 17 17 18 18 17 16 16 15 15 16 15 14 14 15 15 15 15 15 16 17 17 17 18 18 19 19 19 19 18 18 18 19
19 19 18 18 17 16 16 15 15 15 15 16 17 17 18 18 18 17 17 17 17 17 16 16 15 15 16 15 15 15 15 16 15 15 16 16 17 18 18 19 19 19 19 19 19 18 19 19 20
21 19 18 18 17 16 15 15 14 15 16 16 16 17 17 17 17 16 16 16 16 16 16 16 15 15 15 16 15 16 16 15 15 16 16 17 18 18 18 18 18 18 18 18 19 19 19 20 20
21 19 18 17 17 16 15 15 15 15 15 16 16 16 16 16 16 15 15 16 16 16 16 16 15 15 15 16 17 16 16 15 15 16 16 17 17 17 18 18 18 18 18 18 19 19 19 19 20
21 18 16 16 16 16 16 16 15 14 14 15 15 15 14 14 14 14 14 15 16 16 16 16 16 16 16 16 16 16 15 15 15 16 16 17 17 18 18 18 18 19 19 19 19 19 19 19 19
20 18 17 16 15 16 17 16 16 14 14 13 13 14 14 14 14 14 15 15 16 16 15 16 16 16 16 16 16 16 15 16 16 17 17 17 18 18 18 18 18 19 19 19 19 19 18 18 19
19 19 18 17 17 16 16 15 16 14 14 14 14 13 14 14 14 14 14 15 15 15 16 17 16 16 16 15 16 16 16 17 17 17 17 17 18 18 18 18 18 19 18 18 18 18 17 18 18
20 20 18 18 17 16 16 15 15 14 15 14 14 14 13 13 14 14 14 13 14 15 16 17 17 16 16 16 16 16 16 17 17 17 17 18 18 18 18 17 18 18 18 18 18 18 18 18 18
21 21 20 19 19 17 16 17 17 16 16 15 15 14 14 14 14 13 13 13 14 15 15 16 16 16 16 16 16 16 16 16 16 16 16 16 17 17 17 18 18 18 18 18 18 18 19 18 17
21 20 20 20 20 19 18 19 19 17 17 17 16 15 15 15 15 14 14 14 14 15 16 16 17 17 17 17 16 15 15 15 14 14 15 15 16 16 17 17 18 18 17 17 17 18 18 18 17

GEFSSGP_500_meanwind_258.txt.gz
Wind_Speed
2 2 2 2 3 5 2 3 6 7 7 6 6 6 6 7 7 8 8 8 8 8 7 7 7 7 7 6 6 7 7 8 7 7 7 7 7 7 7 8 8 8 9 9 8 8 8 8 9
2 2 2 3 3 3 2 5 7 7 8 7 7 8 7 7 8 8 8 8 8 8 8 8 8 7 8 8 8 8 8 9 8 8 7 7 7 8 8 8 9 9 9 10 10 9 9 10 10
3 3 3 3 2 2 5 7 8 8 7 8 9 8 7 8 8 8 8 9 9 8 8 8 8 9 9 9 8 9 9 9 8 8 8 8 7 8 8 9 10 10 10 11 11 11 10 11 10
5 4 3 1 1 5 7 8 9 8 8 8 8 9 9 8 8 8 9 9 9 9 8 9 9 9 9 9 9 9 9 9 9 9 9 9 9 9 9 10 11 11 11 11 11 11 11 11 10
6 5 2 2 2 5 9 10 11 9 7 8 8 8 9 9 9 10 9 9 9 9 9 10 9 9 10 10 10 10 10 10 10 10 10 10 10 10 10 11 12 12 12 11 11 10 11 11 11
6 4 3 3 3 6 10 11 9 9 9 8 9 8 9 9 10 10 10 10 9 10 10 10 10 10 10 11 11 11 12 11 11 11 11 11 11 11 11 12 13 13 13 12 12 11 11 11 11
6 5 4 4 4 8 11 11 9 9 10 10 9 9 10 10 9 9 10 10 10 10 9 10 11 11 11 11 11 12 12 12 13 13 13 12 12 13 13 13 13 14 14 13 13 13 12 12 13
7 7 6 6 5 8 12 12 10 11 10 9 10 10 10 9 10 10 10 11 10 9 10 11 11 11 11 11 12 12 13 13 13 13 13 13 13 13 13 14 14 14 14 14 14 14 13 13 14
9 7 8 5 6 9 11 12 12 11 10 10 10 11 11 10 10 11 11 11 10 10 11 11 11 11 12 12 12 12 13 13 14 14 14 14 14 14 14 14 14 14 14 13 14 14 15 15 15
10 9 9 8 8 9 10 12 13 10 10 11 11 11 11 11 11 11 12 12 11 11 12 12 13 13 12 13 13 13 13 14 14 14 15 15 15 14 13 13 13 13 13 13 13 14 15 16 16
13 13 11 11 10 12 12 12 12 10 11 11 12 12 13 12 12 12 12 12 12 12 12 13 14 14 13 13 12 13 14 15 15 15 15 15 15 14 13 13 13 13 13 14 15 16 16 16 17
14 15 15 14 13 14 13 13 12 13 13 12 13 12 13 13 13 12 12 13 13 13 13 14 13 14 14 14 14 15 16 16 16 16 16 16 15 14 14 14 15 14 15 15 16 17 16 16 17
15 14 14 13 13 15 14 13 12 12 14 14 13 14 13 13 14 14 14 14 15 15 14 15 13 14 14 15 17 17 17 16 16 16 16 16 15 15 15 16 17 16 16 17 16 16 16 16 17
15 14 14 14 15 16 15 14 14 15 15 14 14 14 14 14 14 14 15 15 15 16 16 16 16 15 16 17 18 18 17 17 17 17 17 16 15 16 16 16 17 17 17 17 17 17 17 17 18
16 15 14 14 15 16 15 15 14 15 17 16 16 15 15 14 14 15 16 16 16 17 17 17 17 18 18 19 19 18 18 17 17 18 17 16 16 16 16 16 16 17 18 18 18 17 17 17 18
14 13 14 14 15 16 16 16 15 16 18 18 18 17 17 16 16 16 16 17 17 17 18 18 18 18 18 18 18 18 18 19 19 18 17 16 16 16 16 16 16 17 18 18 18 17 17 18 18
14 13 14 14 14 16 18 17 16 18 19 19 19 19 19 18 17 17 17 17 17 18 18 18 18 17 17 17 18 18 18 18 19 18 17 16 16 16 16 17 17 17 18 18 18 18 18 18 19
15 14 14 14 16 17 18 18 17 19 18 18 19 19 18 18 18 17 17 17 18 18 17 17 18 18 18 17 17 17 17 18 19 18 17 17 16 16 17 17 17 18 18 18 18 17 18 19 19
16 16 16 16 16 18 19 19 17 18 18 19 18 18 17 17 17 18 17 18 19 19 18 18 18 18 18 17 18 18 18 18 18 18 17 18 17 17 17 17 18 18 18 18 18 19 19 19 19
17 17 16 17 17 18 19 18 17 17 17 20 18 17 17 16 17 18 19 19 19 19 19 18 18 17 17 17 18 18 17 17 17 18 18 18 18 18 17 17 18 18 18 18 18 18 18 19 19
19 18 18 18 19 18 18 19 18 19 18 19 19 17 17 17 18 19 20 20 20 19 18 18 17 17 17 18 18 17 17 17 17 17 17 16 17 17 17 18 18 18 18 19 19 19 19 18 18
20 18 19 19 21 19 18 19 17 18 18 18 17 17 17 18 18 19 19 19 19 18 17 17 17 17 17 17 17 17 16 17 17 17 16 16 17 17 18 18 19 19 18 18 18 18 18 19 19
19 18 19 19 20 20 18 18 18 19 18 19 19 18 18 18 19 19 18 19 19 18 17 17 16 16 16 16 16 16 16 17 17 18 17 17 17 17 17 18 18 18 18 18 19 19 19 19 19
19 19 19 19 19 20 17 18 19 18 19 19 18 18 19 18 18 17 17 18 17 17 16 16 15 16 15 15 16 16 16 16 17 18 17 18 18 18 18 19 18 18 19 19 19 18 19 19 19
19 19 18 19 19 19 16 18 19 19 19 20 20 20 18 17 17 17 18 18 16 15 15 15 15 15 15 15 15 15 16 17 17 17 18 19 19 19 19 19 19 19 19 19 19 18 19 19 20
20 20 19 19 17 17 16 19 21 20 19 19 19 18 17 16 16 17 17 17 16 15 15 15 15 15 15 15 15 16 17 17 17 18 19 19 20 19 20 20 19 19 20 19 19 19 19 20 21
21 21 20 20 19 18 18 19 20 19 19 19 17 17 17 17 17 18 17 16 15 15 14 15 15 15 14 14 15 16 17 17 18 19 19 20 20 19 20 20 19 20 20 20 19 20 21 21 21
19 19 20 21 20 20 19 20 23 22 20 18 18 17 17 17 18 17 16 15 15 15 15 15 16 16 15 15 15 16 17 17 18 19 19 20 19 20 20 19 19 20 21 20 20 20 21 21 21
19 20 20 21 21 20 20 21 21 21 21 21 20 18 18 17 17 16 16 16 16 16 15 16 16 16 16 16 16 17 17 17 18 19 19 19 19 20 19 19 20 20 20 20 20 20 20 20 20
20 20 21 22 21 21 20 21 22 21 21 21 20 19 20 19 18 17 16 16 16 15 16 17 16 17 17 17 17 18 17 17 17 18 19 19 19 19 19 20 20 20 20 20 20 19 19 19 19

GEFSSGP_500_meanwind_264.txt.gz
Wind_Speed
6 5 5 4 3 2 0 1 3 4 5 5 6 7 7 7 7 7 6 5 6 7 7 7 7 7 7 7 7 7 7 7 8 8 8 8 8 8 7 8 9 9 9 10 10 11 11 11 10
6 6 5 4 4 2 2 2 3 5 6 6 7 7 8 7 7 7 6 6 6 6 7 7 7 7 7 7 7 8 8 8 8 8 8 8 8 8 8 9 9 9 10 10 11 11 12 11 11
7 6 6 6 5 2 2 3 4 6 7 8 9 9 7 7 6 6 6 7 7 6 6 7 7 7 7 7 7 8 8 8 8 8 9 8 8 9 9 9 10 10 10 11 11 11 12 12 12
7 7 7 6 5 3 3 4 6 8 10 10 10 9 6 6 6 6 6 6 6 6 6 7 7 7 7 7 7 8 8 9 10 9 9 9 9 10 10 10 10 11 11 12 12 11 12 12 13
8 8 7 6 4 4 4 5 7 8 10 10 10 10 9 8 8 7 7 7 7 6 6 7 7 7 7 7 7 8 9 9 10 10 9 10 10 10 10 11 11 11 12 13 13 12 11 12 13
8 8 8 7 6 5 5 6 7 8 9 9 10 10 9 8 8 9 8 8 8 8 8 8 8 7 7 8 8 8 9 10 10 10 10 10 10 10 11 11 12 12 12 13 13 12 12 11 12
9 9 7 7 7 6 6 6 7 8 9 10 9 10 9 8 8 8 9 9 8 8 9 9 8 8 8 9 9 9 9 10 10 10 10 10 11 11 12 12 12 13 13 14 13 13 12 11 12
10 9 8 7 7 7 7 7 8 8 9 10 9 10 10 9 8 7 8 9 8 8 9 9 8 8 8 9 10 10 10 10 11 11 11 11 12 11 12 12 12 12 13 14 14 14 13 12 12
11 10 8 7 7 8 8 8 9 9 10 10 10 9 10 9 8 8 9 9 9 8 9 8 8 8 9 9 10 10 10 11 12 12 11 11 12 12 12 13 13 13 13 13 14 14 14 13 13
12 11 10 10 10 9 10 10 10 11 11 11 11 10 10 10 10 9 9 9 9 8 8 8 8 9 10 10 10 10 11 12 12 12 13 12 12 13 13 14 14 13 13 13 14 14 14 14 15
13 13 12 12 12 11 12 11 12 13 12 12 12 12 11 11 11 9 9 9 10 9 9 9 9 10 10 10 11 11 12 12 13 12 13 13 13 13 13 13 13 14 13 13 13 13 14 15 15
15 16 16 14 14 14 13 13 15 14 13 12 11 11 12 11 11 11 11 10 10 10 10 10 10 11 12 12 12 12 13 13 13 13 13 13 13 13 13 12 13 13 12 12 12 13 14 14 15
17 18 18 16 15 14 14 14 15 15 15 15 13 12 11 11 12 13 12 12 10 10 11 11 12 12 13 13 13 13 13 13 13 13 13 13 14 14 14 13 13 12 12 12 13 13 14 14 14
17 18 17 16 14 14 14 15 15 15 16 15 14 14 13 12 13 13 14 13 12 11 11 12 13 13 14 14 13 13 13 13 14 14 13 13 14 14 14 14 13 12 12 12 13 14 14 15 14
19 18 16 14 14 15 15 16 17 16 16 15 15 14 13 14 14 14 14 13 12 13 13 13 13 14 14 13 13 13 13 13 13 13 14 14 13 13 14 14 14 13 13 13 13 14 15 15 15
19 18 16 14 14 15 16 16 16 16 16 15 16 15 14 15 14 14 13 13 13 13 14 14 13 14 12 12 11 11 13 13 13 14 14 14 14 14 15 14 13 13 13 14 14 15 16 15 16
18 17 15 14 14 15 17 17 15 15 15 15 15 16 15 16 14 14 14 13 13 14 14 14 14 14 13 12 12 13 13 14 14 14 14 14 14 15 15 14 13 13 13 14 15 15 15 16 17
17 17 16 15 15 17 18 18 16 15 15 15 15 14 14 15 16 15 14 14 14 14 14 14 14 14 14 13 13 13 13 13 14 13 13 13 14 14 14 13 13 13 14 14 15 15 15 16 17
18 18 18 17 16 18 19 19 19 17 16 14 13 14 14 15 16 15 14 15 15 14 14 14 15 15 14 13 13 12 13 13 14 14 13 13 14 13 13 12 13 13 14 14 15 16 16 16 17
18 18 18 18 17 18 18 18 18 18 16 15 14 14 14 15 15 15 15 15 14 14 14 14 15 14 14 13 12 12 13 13 14 14 13 12 13 13 12 13 13 13 13 14 15 15 15 16 17
18 18 18 17 17 18 19 20 19 19 18 16 15 15 14 14 14 14 14 14 14 14 14 14 15 14 14 14 14 14 14 14 14 14 14 14 14 14 13 13 13 13 14 15 15 16 16 16 16
18 17 19 18 19 20 20 22 20 19 18 17 15 15 14 12 12 13 13 13 13 14 14 14 15 14 13 13 13 14 14 14 14 14 15 14 14 15 14 14 14 15 16 16 16 16 16 16 17
17 18 21 21 21 22 22 23 21 21 19 18 16 13 13 13 11 11 12 12 13 14 14 14 14 13 13 12 13 13 14 14 14 14 15 15 15 15 15 15 15 16 16 16 16 16 16 16 16
18 19 21 22 23 23 22 23 21 20 19 17 14 13 12 13 12 12 12 12 13 13 13 13 12 13 13 13 13 13 13 13 14 14 15 16 16 16 15 16 16 17 17 17 17 16 16 16 16
19 19 20 21 23 23 21 23 22 21 18 17 16 15 13 13 13 13 12 13 13 12 12 12 12 13 13 13 13 13 13 14 14 15 15 16 16 16 17 17 17 18 18 18 17 17 16 16 16
19 19 21 22 21 22 21 22 20 20 19 18 18 16 15 14 13 13 13 13 13 12 12 12 12 13 13 13 13 14 14 14 14 14 14 15 15 16 16 17 17 18 18 18 17 17 17 16 16
20 21 20 22 22 22 23 23 21 19 20 19 18 17 15 15 14 14 15 13 12 12 11 12 13 13 13 13 14 14 14 14 14 14 14 15 15 16 16 17 17 18 18 18 17 17 17 17 16
22 21 21 22 24 24 22 21 20 20 20 19 17 16 16 15 16 15 15 15 14 13 13 13 13 13 13 14 14 14 14 14 15 15 15 15 16 16 16 16 16 17 18 18 17 16 17 17 18
22 22 22 22 23 24 23 22 20 20 20 19 18 18 17 17 17 17 17 17 15 15 15 15 14 13 14 15 14 14 14 15 15 16 15 16 15 16 16 16 16 17 18 18 18 17 18 18 18
21 21 21 22 23 24 25 23 21 21 20 18 19 19 19 18 18 18 18 18 17 17 16 15 15 14 15 15 15 16 16 16 16 15 15 16 15 16 16 16 16 17 18 18 18 18 18 17 17

GEFSSGP_500_meanwind_270.txt.gz
Wind_Speed
4 3 3 3 3 2 1 2 3 4 5 6 7 6 7 8 9 9 7 6 6 6 6 6 6 7 7 7 6 6 5 5 5 5 5 6 6 6 6 7 7 7 7 8 8 8 7 7 7
5 4 4 4 4 3 2 3 3 4 5 5 6 6 7 9 9 10 8 7 6 6 6 6 7 7 7 6 6 6 5 5 5 5 6 6 6 6 6 7 7 7 7 8 8 9 8 8 8
6 5 5 5 4 4 3 3 3 4 6 6 6 7 7 9 10 10 8 7 7 7 7 7 7 7 6 6 5 5 5 5 5 5 6 6 7 7 7 7 8 8 8 8 9 9 10 9 9
7 7 7 6 4 4 4 3 3 4 5 6 6 7 8 9 9 8 8 8 7 7 8 7 7 6 6 6 5 5 6 6 6 6 6 7 7 8 8 9 8 8 9 9 10 10 10 10 10
8 8 8 7 6 5 6 5 4 5 5 6 7 7 8 8 8 8 8 8 7 7 7 7 7 6 5 5 6 6 6 6 6 6 7 8 8 8 9 9 9 9 9 10 10 10 10 10 11
9 9 9 8 7 7 7 7 6 6 5 6 7 7 8 8 8 8 7 8 8 7 7 7 7 6 5 5 6 6 6 6 6 7 7 8 9 9 9 10 10 10 10 10 11 11 11 11 11
10 11 11 10 9 9 9 8 7 7 7 7 7 8 8 9 9 8 7 8 8 7 7 7 7 7 5 6 6 6 7 7 7 7 8 8 9 10 10 10 10 10 11 12 11 11 10 11 11
12 12 11 11 10 10 10 9 8 8 7 8 8 8 8 9 9 8 7 7 7 7 7 7 8 7 7 6 6 7 7 8 8 9 9 9 10 11 10 10 10 10 11 12 11 11 11 11 11
13 13 12 11 11 11 11 10 9 9 9 9 9 9 9 9 9 9 8 8 7 7 8 8 8 8 7 7 8 8 8 9 9 10 10 11 11 11 10 11 11 11 12 12 12 12 11 11 11
14 14 13 13 12 12 12 12 11 11 11 10 9 10 10 9 9 9 9 8 8 8 8 7 7 8 8 9 9 9 9 9 9 10 10 11 11 12 11 11 11 12 12 13 13 13 13 12 11
14 14 14 14 14 13 13 13 13 13 12 11 11 11 11 10 10 10 10 10 9 8 8 8 8 9 9 10 10 10 10 10 9 10 11 11 12 12 12 11 11 12 13 13 13 13 14 13 12
15 15 15 15 15 14 13 14 14 14 13 14 13 12 12 11 11 11 11 11 10 9 9 9 9 9 10 10 10 11 10 10 10 11 11 12 12 12 12 12 11 12 12 13 14 14 14 13 13
16 16 16 16 16 15 14 15 16 16 15 16 14 12 12 12 12 12 12 12 11 10 10 10 10 10 11 11 11 11 11 11 11 11 11 12 12 12 12 13 11 11 12 12 13 13 12 12 13
17 17 17 17 16 16 16 16 17 17 16 16 16 13 12 11 12 12 12 12 13 12 11 11 11 11 11 11 11 11 11 11 11 11 11 12 12 12 12 12 12 12 12 11 12 12 11 12 13
18 18 18 18 17 17 17 17 18 18 17 17 17 15 13 13 13 12 12 13 13 13 12 12 12 11 11 11 11 12 11 11 11 12 12 12 12 12 11 11 12 12 12 13 13 13 12 13 13
20 19 18 18 19 19 19 18 18 18 17 17 17 17 15 14 14 13 13 13 14 13 13 12 12 12 12 11 12 12 11 11 12 13 13 13 13 12 12 11 11 12 12 13 13 13 13 13 14
21 20 20 19 20 20 20 19 19 18 18 19 18 17 15 15 15 15 14 14 14 14 13 12 12 13 12 12 12 11 12 12 13 13 13 12 13 12 12 11 12 12 12 12 13 13 14 14 15
21 22 21 21 21 21 20 20 19 19 19 20 19 18 16 16 16 16 15 15 14 14 13 12 13 12 12 12 11 11 12 12 12 13 13 13 13 13 12 12 13 13 12 12 13 13 14 15 15
22 22 22 22 23 23 21 21 20 20 20 21 20 18 16 16 16 15 15 15 14 13 12 12 12 11 11 10 10 10 11 12 13 14 14 14 13 13 12 13 13 13 13 13 13 13 14 15 16
23 23 23 23 24 24 23 22 22 21 20 20 20 19 17 16 16 16 16 15 14 14 13 13 12 11 11 12 11 10 11 12 13 14 15 14 13 13 14 14 14 14 13 13 14 15 15 15 16
22 22 22 23 23 23 23 22 22 21 21 21 20 19 18 17 17 16 15 14 14 14 13 13 13 13 13 13 12 12 12 13 15 15 15 14 14 14 14 14 15 15 15 14 15 16 16 16 16
22 22 23 23 23 23 23 23 21 22 21 21 20 19 18 17 16 15 14 13 13 13 13 13 13 13 14 14 13 13 13 14 15 15 15 14 14 14 15 14 15 15 15 15 16 17 17 18 18
22 21 22 23 24 24 24 25 22 22 21 20 19 18 18 16 15 15 15 14 14 13 13 13 13 12 13 13 13 13 14 15 15 15 14 15 14 15 14 15 15 15 16 16 17 18 18 19 19
21 21 22 23 24 25 23 25 23 22 21 19 19 19 18 18 16 16 15 15 14 14 13 12 13 13 13 12 12 13 14 15 15 15 15 15 15 15 15 15 15 16 16 17 17 18 18 19 19
21 21 22 24 24 24 22 24 23 22 20 19 19 20 20 19 18 17 17 16 15 15 13 13 13 12 13 13 13 14 14 15 15 15 15 15 15 15 16 16 16 16 17 17 18 18 18 18 18
20 21 21 24 24 23 23 25 23 21 20 19 18 19 19 19 18 18 18 17 16 15 14 13 14 14 14 13 13 13 14 14 14 15 15 15 15 15 15 16 16 17 17 17 18 18 18 18 18
21 21 22 24 24 24 24 24 23 20 19 19 19 19 19 19 18 19 19 18 17 15 15 15 15 14 15 14 13 13 14 15 15 15 15 15 15 15 15 16 16 17 18 18 18 18 19 19 19
22 22 22 24 25 26 25 24 22 20 19 19 19 19 19 19 19 19 19 18 18 17 16 16 16 15 15 15 15 14 14 15 15 15 15 16 15 15 15 16 16 17 18 19 19 19 19 19 19
24 24 24 24 25 26 26 23 21 20 19 19 20 19 19 19 20 19 19 19 18 17 16 16 16 16 16 15 15 15 14 15 15 15 16 16 15 15 15 16 17 18 19 20 20 19 18 18 18
24 24 24 25 25 24 25 23 21 21 20 20 19 19 20 20 21 20 19 19 19 19 18 17 17 17 17 16 16 15 15 16 16 16 16 16 16 16 16 17 18 19 19 20 19 18 18 18 17